GFSMA_con_3kmhel_114.txt.gz
Helicity
117 127 100 87 69 60 73 84 95 94 84 97 107 93 74 62 65 114 106 93 68 65 49 43 25 34 51 52 61 62 57 53 60 50 44 29 37 36 36 31 32 34 31
138 125 116 95 70 65 69 86 107 104 84 94 109 91 82 71 96 111 134 147 140 87 71 48 19 19 36 37 75 66 65 36 50 49 30 33 35 32 32 28 32 35 32
154 128 120 118 97 75 84 107 130 126 127 129 125 108 101 97 90 113 155 183 176 100 66 52 30 19 35 32 76 72 54 38 41 47 34 31 31 28 33 30 36 36 40
161 150 119 103 112 108 111 125 149 149 138 139 100 104 101 107 93 108 136 187 198 175 83 40 59 34 26 42 57 66 42 35 25 41 35 33 24 23 31 43 37 33 32
163 162 128 121 133 127 135 139 142 168 164 140 107 93 107 116 111 107 121 180 192 176 146 63 58 48 23 41 55 52 39 29 31 30 32 31 22 24 34 48 45 19 13
158 169 158 163 157 151 151 160 148 147 148 150 137 97 100 97 107 87 113 157 174 179 151 91 80 45 47 37 57 51 30 32 31 10 30 33 21 25 36 42 42 33 13
165 165 159 174 171 177 170 161 152 150 147 174 177 138 115 105 106 128 143 170 188 184 133 97 115 69 55 36 66 45 29 32 34 16 21 29 39 26 42 39 28 32 25
186 187 182 174 168 178 168 169 191 198 175 222 211 179 129 124 112 145 181 198 187 205 175 114 121 78 66 89 80 50 38 29 23 26 20 28 29 32 41 38 30 27 26
194 196 198 201 198 192 194 201 197 207 238 239 199 203 192 143 195 159 185 218 227 193 168 126 114 72 74 91 113 62 42 46 30 26 36 39 40 27 30 34 26 31 24
204 205 214 215 206 206 212 218 237 230 230 265 208 162 182 209 190 218 195 229 244 213 198 196 103 79 81 89 114 100 66 70 58 26 38 40 42 42 33 39 43 39 32
203 200 232 233 222 213 213 221 244 242 257 253 303 267 202 216 156 253 302 287 260 263 207 193 152 46 92 81 98 101 104 96 78 52 38 37 34 48 43 49 56 45 47
227 212 226 234 209 203 217 220 208 227 254 247 260 253 254 245 238 294 349 274 298 297 248 243 131 56 99 92 96 90 93 88 84 64 49 35 28 22 35 54 62 48 48
265 267 250 250 254 238 226 235 236 241 272 269 235 231 235 243 233 213 245 329 341 386 317 289 95 88 88 107 86 88 92 99 94 73 52 39 39 37 47 49 41 42 41
245 222 242 241 223 225 228 233 223 225 254 266 250 226 194 213 230 276 270 343 329 425 398 291 160 140 82 92 83 88 100 104 100 88 67 53 51 51 66 68 64 68 59
251 273 224 261 248 228 228 240 215 228 255 251 227 188 184 174 225 365 349 315 349 395 302 385 236 165 101 131 65 86 110 89 91 88 73 66 70 77 81 80 76 71 61
255 283 255 239 239 214 258 245 202 234 235 240 209 179 127 119 120 210 470 402 486 393 260 303 257 289 247 103 85 105 99 98 93 85 81 94 98 100 98 85 83 70 62
191 213 254 271 259 226 287 230 220 230 197 195 178 146 105 83 167 261 334 568 466 281 292 290 323 224 170 114 137 107 85 110 111 89 99 99 86 97 94 95 86 88 100
225 193 243 267 259 244 239 220 224 200 169 154 129 137 112 167 190 280 439 400 247 343 298 281 287 224 124 90 97 156 154 143 130 131 132 111 88 84 99 112 109 116 108
251 251 247 213 217 219 213 192 191 175 157 141 137 134 120 189 176 258 371 312 345 389 360 318 268 198 185 116 146 212 179 222 197 199 192 201 213 213 154 169 172 195 210
255 195 171 153 170 205 230 166 169 153 143 132 120 127 97 116 182 332 313 275 418 426 393 284 231 229 206 178 177 168 175 184 210 187 290 195 205 207 170 176 166 164 174
208 255 208 163 196 220 261 175 146 127 130 129 119 125 102 137 231 260 299 251 335 367 336 218 168 155 193 211 177 182 163 269 312 295 287 192 226 203 244 258 271 298 253
118 263 369 400 502 437 587 336 116 108 126 133 128 147 113 101 161 241 340 272 472 260 166 162 171 203 114 138 174 185 212 326 259 284 299 315 263 321 265 300 336 328 335
192 181 352 458 447 417 519 397 183 168 188 221 231 188 184 177 158 223 316 354 391 347 252 146 192 181 143 200 262 276 185 236 294 350 373 391 355 388 341 351 302 356 361
195 230 207 262 213 205 315 343 287 309 302 295 265 246 203 185 190 225 272 317 324 350 287 368 367 384 384 354 310 264 287 383 400 456 395 373 343 395 383 360 373 383 311
191 232 164 110 234 138 171 274 275 339 387 370 330 297 236 230 204 205 303 343 342 322 381 484 475 459 500 364 358 316 337 359 363 315 403 400 476 465 496 441 337 393 294
150 140 219 236 250 283 214 53 242 234 330 366 409 393 334 295 256 287 283 300 358 305 326 338 421 497 424 394 451 398 278 386 406 402 425 435 483 464 426 403 341 319 246

GFSMA_con_3kmhel_117.txt.gz
Helicity
79 87 81 83 93 104 81 82 85 61 67 67 53 55 66 65 55 64 68 89 85 95 66 47 29 34 42 47 48 70 76 71 72 62 40 34 29 39 28 18 28 23 18
81 90 89 76 68 95 84 65 69 60 66 78 73 56 62 57 62 58 63 89 124 125 60 52 32 16 21 29 48 47 57 60 65 46 34 29 33 38 27 17 13 24 19
72 93 92 82 65 80 86 82 77 76 96 96 96 82 71 74 81 73 73 75 118 128 85 54 36 34 9 15 33 57 60 57 56 39 30 20 32 30 18 25 20 19 20
65 84 93 72 80 108 103 113 121 118 107 107 114 100 82 66 69 84 96 110 137 168 136 72 44 65 24 20 43 50 51 37 36 39 28 22 23 29 19 24 16 23 25
79 77 84 90 108 102 105 128 152 144 137 109 103 104 85 68 60 75 78 101 131 158 179 119 51 60 35 22 36 48 36 23 32 38 34 17 14 15 16 21 19 22 24
120 85 85 102 118 115 113 128 146 143 126 110 104 98 97 85 69 68 55 72 103 129 136 175 97 118 33 34 36 48 37 21 28 29 30 19 24 16 5 20 30 23 15
132 130 112 105 126 131 131 147 163 155 153 149 137 100 77 87 94 77 79 84 89 115 134 183 164 118 36 34 42 49 39 22 25 26 25 23 28 24 10 23 26 22 14
133 147 167 126 136 142 142 165 210 223 177 189 182 172 132 121 113 95 86 102 94 134 148 152 98 111 44 52 37 71 40 17 26 34 27 31 36 38 17 25 27 25 19
116 127 165 164 149 162 159 172 192 209 234 227 208 199 192 161 134 96 122 116 100 153 167 174 169 135 63 11 59 76 59 45 33 37 40 51 50 40 29 23 23 27 25
130 132 147 154 167 177 187 197 197 200 221 242 224 197 214 225 180 118 103 125 122 132 148 171 187 126 57 72 53 102 75 53 52 31 35 56 53 48 46 33 20 25 24
179 138 144 161 184 182 176 219 208 189 182 190 260 269 179 204 173 257 151 155 120 167 160 190 232 198 138 77 64 68 93 77 70 57 40 40 54 67 60 42 32 26 33
208 138 167 194 188 184 194 202 188 182 189 191 230 284 295 301 288 301 250 238 177 220 211 236 218 209 183 106 79 80 98 97 93 84 76 50 52 54 48 53 43 28 48
213 158 235 245 211 213 217 213 192 185 185 204 220 259 272 254 208 186 185 184 241 246 251 243 266 224 218 167 -4 55 89 102 107 100 83 70 68 64 47 41 35 34 38
194 190 158 215 224 224 212 201 212 213 209 196 196 234 253 210 207 220 250 190 171 308 333 282 273 287 258 192 -10 75 45 61 94 100 93 80 72 78 59 48 40 45 32
165 182 204 185 201 218 224 224 218 223 250 229 202 206 231 246 227 209 187 187 262 296 245 263 315 315 294 140 107 62 56 64 60 80 103 96 89 90 66 61 72 70 57
110 136 177 173 194 201 227 226 233 213 257 281 236 212 232 226 195 183 156 224 304 248 282 285 274 300 289 245 98 49 57 82 91 75 89 102 95 86 72 85 86 80 66
149 150 154 178 202 204 212 237 230 248 267 265 240 206 206 193 191 164 148 142 144 227 194 385 331 335 239 223 137 85 77 85 78 61 72 77 95 88 80 87 101 94 90
121 168 165 152 186 214 202 231 224 272 242 241 218 213 177 194 139 121 142 126 174 196 254 442 424 272 293 181 261 187 178 75 84 120 87 117 108 92 75 74 127 121 101
328 239 195 199 204 214 226 239 240 256 243 206 205 169 134 113 134 125 150 195 203 265 284 354 300 321 299 295 305 209 166 98 198 168 239 246 199 188 193 224 246 202 196
362 369 368 275 264 261 270 251 227 226 226 204 121 127 108 123 133 141 181 172 198 271 235 254 311 329 285 249 254 221 276 278 235 290 309 296 248 300 294 313 243 238 231
296 267 294 348 395 423 406 349 284 202 216 268 128 138 130 115 107 107 169 206 255 267 273 290 375 341 314 297 247 273 188 267 254 221 209 180 245 296 298 258 238 247 234
236 213 232 219 249 231 288 243 287 231 191 143 145 93 118 108 104 94 183 214 212 267 235 271 321 229 220 239 263 258 294 267 220 174 244 271 270 310 365 277 223 232 221
273 244 207 225 216 241 264 194 270 334 449 262 225 124 134 152 134 171 250 369 448 465 298 286 321 279 207 183 228 237 233 239 227 298 427 449 440 436 424 377 307 312 320
217 211 261 261 286 319 300 164 205 335 325 403 440 290 233 215 188 203 251 331 400 404 338 337 352 303 273 279 218 187 166 282 422 526 506 495 466 498 482 385 365 401 355
174 186 208 245 267 291 337 316 133 62 212 293 394 449 329 296 279 263 267 338 379 381 365 420 433 456 444 485 448 350 412 443 526 477 514 512 576 658 568 495 450 412 443
68 80 115 143 206 207 357 412 307 243 233 220 211 237 421 369 216 221 305 264 368 313 344 379 355 496 543 519 587 467 397 416 496 450 499 495 568 673 601 459 560 426 416

GFSMA_con_3kmhel_120.txt.gz
Helicity
46 49 36 67 51 59 52 43 31 37 41 24 18 24 37 50 46 48 61 109 88 53 65 69 49 37 38 49 76 71 73 69 70 73 64 49 33 20 6 23 31 21 19
37 50 49 51 54 50 43 27 32 41 47 38 31 27 32 49 57 50 59 67 83 70 105 79 75 40 20 24 50 57 67 65 62 59 52 45 31 19 19 23 26 23 21
63 40 59 41 49 49 61 31 41 47 68 63 64 48 32 40 47 48 61 68 93 84 93 96 131 50 31 19 26 35 57 58 54 46 41 49 41 29 27 10 15 20 20
71 73 70 76 74 97 58 51 55 54 64 72 84 66 47 56 45 52 50 65 78 92 101 114 89 74 60 7 6 26 41 58 51 47 47 47 57 36 29 11 15 21 13
96 93 70 66 102 105 72 70 66 51 67 72 83 85 71 63 65 50 52 64 69 87 111 132 146 80 79 48 13 38 45 47 38 42 45 45 48 43 19 14 10 18 11
103 101 98 90 119 112 78 108 80 64 65 70 80 99 107 81 83 70 47 60 65 83 96 112 134 105 82 35 44 40 40 34 31 38 32 40 42 53 33 10 25 23 20
116 113 118 120 131 117 116 105 105 95 99 97 164 120 112 102 113 112 70 66 55 61 83 94 140 152 117 64 56 52 38 26 29 28 29 38 37 55 47 13 27 31 28
107 112 138 141 144 134 119 137 149 151 143 171 174 143 118 107 123 146 123 78 57 61 82 103 142 161 151 113 42 12 57 37 24 35 42 45 47 52 54 33 25 27 28
81 102 137 158 156 152 159 156 191 177 182 188 183 141 146 116 108 111 101 72 57 69 76 103 129 166 157 119 70 29 69 51 45 54 46 51 54 47 50 52 32 35 37
61 78 99 145 169 176 151 184 189 196 191 208 180 119 114 120 105 100 96 84 70 69 72 103 119 166 157 170 84 29 68 70 49 73 59 43 62 55 45 48 47 42 38
113 91 99 113 128 165 162 188 229 228 239 216 185 188 114 122 108 100 104 112 106 75 84 83 120 150 170 213 131 88 63 81 28 79 77 63 46 67 61 47 49 47 32
168 164 111 135 163 144 151 212 223 213 228 212 204 153 156 168 168 159 130 106 117 111 127 91 110 169 183 216 141 116 70 83 67 60 105 81 65 59 64 60 61 54 48
145 163 144 164 180 175 150 185 209 190 210 185 145 164 154 140 187 202 184 141 129 123 125 104 150 166 184 257 158 118 94 84 82 69 109 111 95 76 78 64 56 59 54
114 153 148 173 141 157 152 148 196 181 154 176 154 202 207 204 198 231 188 124 171 193 211 93 155 236 206 238 255 195 149 43 88 52 87 117 111 115 102 95 74 62 61
130 144 165 181 189 200 179 172 192 203 174 154 128 151 203 217 212 170 122 173 217 168 207 205 179 171 209 172 266 230 191 141 33 62 69 102 112 111 102 96 98 86 80
212 148 166 150 141 167 176 192 190 173 187 183 195 166 198 239 231 202 181 202 193 209 163 247 226 251 191 231 219 323 219 171 50 81 70 83 77 58 85 101 110 99 86
231 136 123 133 138 142 179 204 197 200 181 229 225 222 204 215 253 212 188 165 199 211 201 159 195 251 269 241 249 260 233 140 109 112 92 84 84 80 68 80 110 106 102
256 248 118 127 136 100 110 152 180 208 247 252 226 250 259 271 243 189 208 183 194 187 198 148 158 260 287 283 240 304 244 155 136 153 134 116 94 108 97 76 106 99 143
250 306 340 319 279 261 156 135 195 187 210 244 230 252 252 277 230 206 160 129 129 152 166 184 219 302 300 261 233 273 249 245 214 257 227 167 142 115 117 93 109 112 158
272 288 310 315 332 349 381 371 376 275 260 259 246 261 269 288 231 177 157 95 129 151 174 214 224 291 282 270 220 269 281 304 401 422 423 273 246 239 235 211 213 225 234
351 345 339 346 366 363 394 358 299 263 279 255 246 248 261 264 170 125 128 131 133 150 181 210 247 268 258 328 318 350 348 424 410 321 323 260 289 322 324 317 254 279 287
324 314 340 332 334 277 392 324 182 216 245 285 225 230 198 142 122 108 56 124 133 151 189 207 208 245 255 309 355 353 353 405 351 358 314 396 321 360 339 280 299 269 381
259 263 282 258 251 279 340 331 312 198 222 273 326 329 386 351 312 133 139 172 235 315 248 162 208 213 227 289 312 275 262 310 306 381 422 345 396 398 345 300 310 368 355
198 208 224 252 248 295 346 316 283 249 268 272 327 341 369 431 447 387 253 220 247 278 298 323 344 362 300 336 341 245 262 374 483 433 428 356 301 326 337 374 369 424 466
123 154 160 200 218 250 336 338 251 238 300 330 322 357 331 280 387 370 206 218 292 300 326 455 500 510 517 499 431 275 331 375 386 426 485 500 547 710 637 602 528 522 494
32 30 60 82 155 172 281 284 205 128 136 168 264 313 325 302 288 344 198 230 282 279 283 270 334 417 414 429 506 405 372 340 446 482 477 622 674 759 653 627 528 564 564

GFSMA_con_3kmhel_123.txt.gz
Helicity
45 55 45 71 86 55 51 41 39 28 14 60 54 52 45 15 23 81 70 102 109 119 95 85 90 29 51 49 56 53 76 78 62 58 61 58 61 44 36 16 22 29 22
51 63 48 59 59 57 72 63 76 41 33 45 63 58 52 49 23 80 75 81 82 89 82 100 101 100 69 44 64 66 73 65 66 53 60 59 48 42 55 32 14 23 26
38 28 78 81 61 48 57 66 75 54 34 41 67 87 70 61 56 53 81 70 77 68 78 93 105 112 112 30 48 68 75 69 77 63 65 61 51 45 45 47 24 31 27
59 24 80 57 92 81 64 80 58 53 55 61 42 86 61 90 75 72 93 86 92 83 92 100 97 137 64 65 18 48 54 75 78 61 66 57 59 54 54 39 48 28 27
98 51 60 59 107 87 82 48 44 42 57 55 45 66 95 75 112 111 70 95 89 78 109 145 111 128 103 97 47 84 33 37 52 54 69 66 65 63 55 63 47 39 27
103 100 102 89 75 102 110 43 66 61 46 64 52 81 93 87 107 129 120 93 79 72 90 144 141 120 130 108 109 53 38 35 41 46 50 69 62 72 60 56 41 56 43
139 120 112 99 104 106 92 91 99 61 84 82 79 110 100 105 91 105 110 116 106 88 69 105 154 136 123 120 128 90 45 50 36 46 48 58 68 73 68 53 42 57 50
170 142 142 120 112 104 104 102 119 107 91 100 130 139 115 78 84 104 122 125 112 96 82 92 130 137 133 180 153 142 94 131 33 37 58 60 69 76 71 61 58 52 53
164 149 146 158 138 132 126 116 132 132 135 139 157 155 114 75 70 103 56 68 87 84 90 99 123 136 145 130 159 141 97 39 21 47 41 78 75 73 64 70 59 51 46
105 143 165 171 173 146 138 127 142 153 172 212 192 148 64 88 96 102 121 91 89 90 100 87 116 131 118 153 145 115 136 58 42 51 46 62 91 84 67 68 62 56 43
87 99 146 175 178 175 135 125 145 154 162 216 241 191 134 106 105 99 102 139 100 95 100 111 103 104 138 135 148 161 166 140 69 73 78 72 87 82 79 61 68 62 53
114 80 94 154 164 159 154 151 157 144 172 190 223 177 161 146 140 142 124 97 141 118 93 116 123 110 119 140 129 184 220 132 154 28 78 94 69 88 77 74 76 69 71
129 108 96 94 146 167 169 160 176 167 166 190 183 198 155 159 117 128 116 101 135 102 180 131 105 143 130 149 150 168 172 166 148 126 72 96 95 100 108 85 85 85 79
123 77 78 102 137 149 164 179 186 178 162 157 130 119 128 139 135 141 178 160 126 108 126 230 170 127 152 156 161 183 174 203 186 127 60 99 98 101 130 118 118 103 91
155 35 53 80 129 158 165 190 190 150 73 120 111 88 92 100 136 155 175 172 149 132 135 152 160 166 130 177 204 181 145 187 206 149 48 6 117 104 120 132 137 126 107
172 184 40 25 116 164 187 206 231 202 224 204 156 118 87 103 118 150 174 193 163 159 142 132 166 144 187 163 172 172 193 166 237 178 136 61 55 105 85 118 139 126 117
151 239 230 83 101 157 198 218 205 221 241 262 173 85 145 159 197 200 215 214 197 190 181 100 135 151 181 173 163 202 184 224 242 224 175 183 55 94 84 96 118 123 114
248 289 318 329 276 225 198 211 175 175 169 179 200 239 161 208 207 212 234 233 219 217 189 168 121 180 185 189 204 250 217 251 242 269 223 224 121 86 98 117 123 116 107
310 341 408 397 372 381 350 362 353 265 174 201 194 270 213 219 279 292 272 272 275 279 252 188 148 194 191 180 194 225 251 224 251 341 283 244 143 146 124 107 111 125 123
321 334 337 350 367 362 336 295 297 299 254 268 192 220 218 271 272 272 286 281 274 268 210 188 197 174 225 216 200 231 257 287 368 426 542 416 322 260 182 135 132 121 129
252 283 292 301 305 277 283 291 261 233 253 261 279 216 214 236 259 296 311 285 249 370 196 188 164 189 229 248 231 218 201 330 402 432 565 502 385 316 278 291 231 157 162
284 276 321 313 352 308 404 334 267 236 257 288 295 298 335 375 354 235 171 181 254 210 195 191 162 185 191 217 217 223 260 402 409 378 492 479 438 496 410 313 288 310 253
257 237 271 241 241 286 372 337 244 158 164 214 263 233 302 277 321 326 327 282 333 363 348 242 122 170 183 199 231 228 305 345 360 420 548 544 547 475 431 342 230 333 390
197 187 172 157 168 235 330 321 232 186 176 200 185 231 294 307 301 288 292 278 358 365 359 254 281 309 323 266 236 217 242 359 530 459 410 355 426 483 446 388 336 379 413
75 83 109 142 151 189 291 306 198 185 187 186 211 248 327 291 331 251 215 254 320 405 395 485 435 440 476 465 428 293 335 392 456 396 414 444 538 605 509 399 433 336 378
39 32 38 53 90 90 146 159 127 94 139 139 152 179 257 215 291 296 219 110 228 259 305 326 273 314 333 355 439 435 421 369 460 371 412 572 547 619 526 523 514 466 454